Location: Waco, TX
(31.5480°N, 97.1670°W)
Time: 18:46:45
(UTC-05:00)

ISS - Pass Details

Date: 12 January 2019
Orbit: 408 x 410 km, 51.6° (Epoch: 25 April)

Event Time Altitude Azimuth Distance (km) Brightness Sun altitude
Rises 07:19:12 0° 303° (WNW) 2,339 - -2.7°
Exits shadow 07:19:57 - 301° (WNW) 2,048 -1.0 -2.6°
Reaches altitude 10° 07:21:28 10° 292° (WNW) 1,473 -1.7 -2.3°
Maximum altitude 07:24:21 28° 231° (SW) 800 -2.5 -1.7°
Drops below altitude 10° 07:27:13 10° 170° (S) 1,461 -0.5 -1.2°
Sets 07:29:27 0° 158° (SSE) 2,316 0.8 -0.7°
